SCP
0 0 0 0 0 0 0 0 0 0 0 0 0 0 0 0 0 0 0 0 0 0 0 0 0 0 0 0 0 -0 -0 -0 -0 -0 -0 -0 -0 -0 -0 -0 0 0 0 0
0 0 0 0 0 0 0 0 0 0 0 0 0 0 0 0 0 0 0 0 0 0 0 0 0 0 0 0 0 0 0 -0 -0 -0 -0 -0 -0 -0 -0 -0 0 0 0 0
0 0 0 0 0 0 0 0 0 0 0 0 0 0 0 0 0 0 0 0 0 0 0 0 0 0 0 0 0 0 0 0 0 0 0 0 -0 -0 -0 -0 0 0 0 0
0 0 0 0 0 0 0 0 0 0 0 0 0 0 0 0 0 0 0 0 0 0 0 0 0 0 0 -0 0 0 0 0 0 0 0 0 0 -0 -0 0 0 0 0 0
0 0 0 0 0 0 0 0 0 0 0 0 0 0 0 0 0 0 0 0 0 0 0 0 0 -0 -0 0 0 0 0 0 0 0 0 0 0 0 0 0 0 0 0 0
0 0 0 0 0 0 0 0 0 0 0 0 0 0 0 0 0 0 0 0 0 -0 -0 -0 0 0 0 0 0 0 0 0 0 0 0 0 0 0 0 0 0 0 0 0
0 0 0 0 0 0 0 0 0 0 0 0 0 0 0 0 0 0 0 0 0 -0 -0 -0 0 0 0 0 0 0 0 0 0 0 0 0 0 0 0 0 0 -0 -0 0
0 0 0 0 0 0 0 0 0 0 0 0 0 0 0 0 0 0 0 0 0 -0 -0 -0 0 0 0 0 0 0 0 0 0 0 0 0 0 0 0 -0 -0 -0 -0 -0
0 0 0 0 0 0 0 0 0 0 0 0 0 0 0 0 0 0 0 0 0 -0 0 0 0 0 0 0 0 0 0 0 0 0 0 0 0 0 0 0 -0 -0 -0 -0
0 0 0 0 0 0 0 0 0 0 0 0 0 0 0 0 0 0 0 0 0 0 0 0 0 0 0 0 0 0 0 0 0 0 0 0 0 0 0 0 0 0 0 0
0 0 0 0 0 0 0 0 0 0 0 0 0 0 0 0 0 0 0 0 0 0 0 0 0 0 0 0 0 0 0 0 0 0 0 0 0 0 0 0 0 0 0 0
0 0 0 0 0 0 0 0 0 0 0 0 0 0 0 0 0 0 0 0 0 0 0 0 0 0 0 0 0 0 0 0 0 0 0 0 0 0 0 0 0 0 0 0
0 0 0 0 0 0 0 0 0 0 0 0 0 0 0 0 0 0 0 0 0 0 0 0 0 0 0 0 0 0 0 0 0 0 0 0 0 0 0 0 0 0 0 0
0 0 0 0 0 0 0 0 0 0 0 0 0 0 0 0 0 0 0 0 0 0 0 0 0 0 0 0 0 0 0 0 0 0 0 0 0 0 0 0 0 0 0 0
0 0 0 0 0 0 0 0 0 0 0 0 0 0 0 0 0 0 0 0 0 0 0 0 0 0 0 0 0 0 0 0 0 0 0 0 0 0 0 0 0 0 0 0
0 0 0 0 0 0 0 0 0 0 0 0 0 0 0 0 0 0 0 0 0 0 0 0 0 0 0 0 0 0 0 0 0 0 0 0 0 0 0 0 0 0 0 0
0 0 0 0 0 0 0 0 0 0 0 0 0 0 0 0 0 0 0 0 0 0 0 0 0 0 0 0 0 0 0 0 0 0 0 0 0 0 0 0 0 0 0 0
0 0 0 0 0 0 0 0 0 0 0 0 0 0 0 0 0 0 0 0 0 0 0 0 0 0 0 0 0 0 0 0 0 0 0 0 0 0 0 0 0 0 0 0
0 0 0 0 0 0 0 0 0 0 0 0 0 0 0 0 0 0 0 0 0 0 0 0 0 0 0 0 0 0 0 0 0 0 0 0 0 0 0 0 0 0 0 0
0 0 0 0 0 0 0 0 0 0 0 0 0 0 0 0 0 0 0 0 0 0 0 0 0 0 0 0 0 0 0 0 0 0 0 0 0 0 0 0 0 0 0 0
0 0 0 0 0 0 0 0 0 0 0 0 0 0 0 0 0 0 0 0 0 0 0 0 0 0 0 0 0 0 0 0 0 0 0 0 0 0 0 0 0 0 0 0
0 0 0 0 0 0 0 0 0 0 0 0 0 0 0 0 0 0 0 0 0 0 0 0 0 0 0 0 0 0 0 0 0 0 0 0 0 0 0 0 0 0 0 0
0 0 0 0 0 0 0 0 0 0 0 0 0 0 0 0 0 0 0 0 0 0 0 0 0 0 0 0 0 0 0 0 0 0 0 0 0 0 0 0 0 0 0 0
0 0 0 0 0 0 0 0 0 0 0 0 0 0 0 0 0 0 0 0 0 0 0 0 0 0 0 0 0 0 0 0 0 0 0 0 0 0 0 0 0 0 0 0
0 0 0 0 0 0 0 0 0 0 0 0 0 0 0 0 0 0 0 0 0 0 0 0 0 0 0 0 0 0 0 0 0 0 0 0 0 0 0 0 0 0 0 0
0 0 0 0 0 0 0 0 0 0 0 0 0 0 0 0 0 0 0 0 0 0 0 0 0 0 0 0 0 0 0 0 0 0 0 0 0 0 0 0 0 0 0 0
Wind_Speed
8 9 6 5 3 1 2 3 4 5 5 10 14 13 8 5 8 10 10 11 12 11 10 9 11 13 14 16 17 16 17 16 14 12 12 12 11 10 9 7 11 13 13 13
8 6 5 3 4 5 4 5 4 5 6 9 12 10 5 5 6 5 7 9 10 12 13 13 13 14 15 14 15 15 15 14 14 12 11 11 11 10 10 10 11 12 14 14
7 2 5 4 8 7 4 3 2 4 5 6 9 5 3 3 3 4 5 6 8 12 11 11 12 13 14 15 17 16 16 15 14 15 11 12 10 11 11 13 12 13 16 15
5 4 5 6 6 5 2 1 1 4 6 6 7 5 4 2 4 6 7 8 9 10 10 9 12 15 16 16 15 16 16 16 15 15 14 16 13 13 14 12 12 15 15 15
3 4 5 5 4 3 4 3 1 3 5 4 2 4 2 0 4 6 7 8 8 9 9 9 10 12 15 15 14 14 16 16 16 16 15 15 14 13 12 13 14 14 12 12
3 2 2 2 2 2 3 2 2 4 4 2 0 4 1 1 1 4 6 8 9 9 8 8 9 10 11 12 13 15 16 16 16 16 15 16 17 17 18 17 16 14 12 11
6 4 6 4 6 8 9 7 7 7 4 1 3 4 3 3 2 1 5 9 10 8 8 9 10 11 12 14 14 15 16 16 17 17 17 17 17 17 17 17 16 16 14 14
4 3 6 6 3 2 4 5 5 2 5 4 2 2 4 3 1 2 5 8 9 8 7 8 9 10 11 13 15 16 17 17 17 17 16 15 16 13 13 16 15 15 14 15
3 4 4 3 3 2 3 3 2 4 2 5 2 1 3 1 4 6 7 8 8 7 7 8 8 9 10 12 14 16 17 17 17 17 17 14 15 15 16 17 15 13 14 16
1 4 5 6 4 6 4 5 4 3 3 7 5 4 3 2 7 8 9 9 8 6 7 8 8 10 11 11 13 14 15 16 15 16 15 14 15 15 15 15 17 17 18 18
1 1 6 4 5 4 4 4 5 3 2 2 7 4 5 3 5 8 9 9 7 8 9 8 8 9 11 11 12 13 15 16 16 16 15 14 14 14 15 14 16 16 17 18
2 3 3 2 1 2 4 3 3 1 2 3 4 6 4 3 4 6 8 7 6 7 7 7 7 9 11 11 12 13 14 15 16 15 15 15 15 15 15 15 16 17 17 17
2 3 3 4 1 5 5 2 2 3 3 3 4 7 3 3 5 6 7 6 5 7 7 6 7 9 11 11 12 12 13 14 15 15 15 15 15 16 16 16 16 16 17 17
4 2 2 3 3 1 2 1 1 4 3 4 6 7 6 8 9 10 8 5 6 8 8 8 9 9 10 10 11 12 12 13 15 15 14 14 15 15 15 15 16 16 16 16
4 1 0 1 2 1 2 2 2 4 5 5 5 5 8 7 8 9 7 6 10 11 11 11 11 9 10 10 11 12 12 13 14 14 15 15 14 14 14 14 15 16 16 17
3 2 1 1 2 2 2 2 2 3 2 3 5 7 4 6 6 8 7 8 10 11 11 12 13 11 11 11 12 13 12 13 13 13 14 15 15 15 15 14 15 15 15 15
2 2 1 3 4 2 4 5 4 3 4 4 5 6 6 8 9 9 5 7 9 10 11 12 11 10 10 9 11 11 12 12 12 12 13 14 14 15 15 15 15 15 14 14
5 3 2 2 5 4 3 1 3 2 5 5 5 5 6 6 9 2 3 5 6 8 9 9 9 10 8 8 9 10 10 11 12 12 12 13 13 14 14 13 14 13 11 11
3 5 3 2 2 8 3 2 3 1 5 2 4 6 5 5 6 0 3 4 4 4 5 6 6 7 8 9 10 10 10 10 11 11 12 12 12 13 13 13 13 12 10 10
5 5 5 3 1 7 2 3 2 2 4 2 3 4 4 5 6 3 4 5 3 4 5 6 7 7 8 9 9 9 10 10 11 12 12 12 12 13 11 12 12 12 11 11
1 3 3 4 5 9 4 2 4 2 4 1 1 1 2 2 4 5 5 4 4 5 6 6 7 7 8 9 9 9 10 10 12 12 12 12 12 11 9 10 10 11 12 12
7 6 5 5 3 9 4 6 6 6 2 1 0 0 1 3 4 4 5 6 7 7 7 7 7 9 9 8 8 10 11 11 12 12 12 12 11 11 11 9 9 9 10 10
7 8 7 10 7 3 4 5 4 4 2 1 2 1 1 2 2 4 5 5 5 7 8 7 7 9 9 8 8 10 12 12 12 12 12 12 12 10 9 8 8 8 7 8
4 3 4 4 6 4 3 2 3 3 3 3 3 3 2 0 1 3 5 5 6 7 7 7 9 10 11 10 11 10 12 12 13 14 13 12 11 10 8 9 8 7 7 7
6 6 4 4 3 2 2 3 4 4 5 5 5 4 3 2 2 3 4 5 6 8 8 8 9 11 12 11 12 13 13 12 13 14 13 13 12 10 8 8 7 10 7 9
6 9 8 7 6 6 5 3 5 6 5 5 5 4 3 3 2 3 4 4 5 7 7 9 10 12 13 13 13 13 12 12 13 14 14 12 11 10 10 10 10 14 14 18
Wind_Direction
26 52 32 345 349 204 163 106 80 59 68 78 92 93 74 49 53 44 31 21 12 2 349 356 5 2 360 0 358 356 354 354 355 354 350 345 341 338 334 334 338 333 333 333
45 28 321 313 7 55 96 99 91 92 79 96 100 90 73 47 52 43 30 16 1 354 355 357 2 360 356 354 352 352 351 350 355 353 346 340 332 331 331 333 332 332 332 328
94 329 337 43 35 41 51 108 136 135 78 93 116 98 96 54 56 42 24 9 2 360 350 351 359 357 353 353 353 349 348 349 354 353 349 343 337 337 340 337 334 334 330 325
71 7 27 44 37 30 333 349 254 169 146 176 156 163 193 159 39 19 3 358 355 351 348 353 358 356 353 349 347 347 348 349 354 355 350 347 344 339 335 329 324 324 322 318
43 14 26 30 357 346 272 313 245 172 152 119 143 132 214 47 21 358 343 338 337 341 345 351 356 354 350 346 346 349 348 349 351 350 347 343 339 335 329 326 322 320 314 308
15 30 47 338 328 342 315 30 90 65 92 126 291 165 229 349 25 329 329 327 328 335 343 347 349 351 346 346 352 351 347 347 348 346 345 342 339 336 332 332 329 328 323 317
3 17 1 4 10 4 26 46 19 2 1 303 76 100 190 183 170 331 330 324 323 332 342 344 346 350 351 351 354 349 345 347 348 346 345 341 340 335 332 330 327 327 327 327
33 348 349 0 38 6 27 74 98 288 282 297 40 155 214 188 203 306 319 312 316 329 338 341 345 348 349 351 355 350 347 347 347 345 342 340 340 336 332 327 325 325 326 326
41 298 319 343 346 56 72 73 124 152 294 283 262 203 244 238 325 313 310 313 323 332 338 341 347 352 350 355 357 349 346 345 344 342 339 338 340 337 333 328 327 327 327 326
95 299 310 316 39 32 84 124 77 71 338 304 293 223 218 291 307 309 315 321 328 342 343 348 355 356 353 357 353 344 344 342 340 340 338 339 335 334 333 331 330 330 328 330
50 254 315 14 46 8 37 58 84 96 155 240 296 280 170 215 289 305 307 313 330 343 344 351 357 357 351 353 350 343 344 342 341 339 336 334 334 335 335 334 331 330 330 332
56 112 299 297 44 30 94 98 114 119 263 203 237 267 165 188 285 296 303 316 335 337 339 350 355 353 348 349 347 344 344 342 340 337 335 334 334 336 337 335 333 332 333 334
100 95 358 1 28 22 46 49 114 127 141 187 213 273 202 284 306 309 318 329 330 335 339 348 353 351 346 344 343 340 342 341 339 338 336 335 336 337 336 335 334 335 336 336
100 105 173 243 277 326 314 305 163 140 178 225 232 272 302 318 320 326 333 337 333 344 344 349 349 346 341 341 339 336 337 339 339 338 336 336 336 334 333 335 336 337 338 338
88 110 285 289 31 282 239 260 237 185 191 209 253 271 287 297 307 313 325 339 346 348 348 350 346 343 339 339 338 338 335 337 337 336 337 336 335 333 333 337 339 338 339 340
70 102 23 274 359 296 222 211 175 166 191 238 269 279 265 295 313 322 334 347 347 345 347 347 344 342 339 338 337 336 332 332 332 332 333 335 337 338 338 339 341 340 339 338
91 108 29 286 317 351 269 205 182 204 222 226 250 262 304 319 325 324 343 358 347 344 346 344 340 336 332 331 333 330 327 325 328 329 330 334 336 338 339 342 342 340 337 337
126 114 108 328 16 295 274 146 171 237 262 235 237 271 299 303 308 332 55 359 343 343 341 334 331 328 323 321 326 324 322 323 326 327 329 332 335 337 338 342 341 337 334 335
117 126 108 82 319 282 285 236 192 232 289 246 236 283 307 318 313 357 56 9 349 342 329 319 318 314 316 320 323 324 320 322 326 330 332 332 332 335 338 343 339 336 333 334
58 88 108 120 266 265 254 173 140 102 295 266 244 291 318 348 340 327 24 5 360 344 326 318 316 314 317 317 322 322 322 325 329 331 330 329 330 332 335 339 336 336 337 341
120 85 127 164 233 267 238 159 122 139 264 275 302 301 322 292 263 327 2 356 353 339 322 319 317 317 313 315 321 320 319 319 321 325 326 328 327 322 331 334 331 334 340 341
179 166 182 153 210 266 204 146 176 214 215 144 151 173 294 290 314 342 347 343 345 334 324 322 322 319 315 313 318 317 316 313 316 319 321 321 321 319 332 327 324 329 333 337
197 189 183 189 209 249 183 185 191 160 147 135 149 95 28 323 331 335 333 335 333 325 323 322 318 315 314 312 313 313 312 313 316 316 314 312 313 312 313 316 317 323 327 332
244 170 167 234 255 237 217 162 120 105 115 114 109 106 105 99 343 341 335 337 332 326 326 322 322 320 315 313 314 309 308 313 314 313 311 310 309 306 302 308 316 318 318 319
218 169 185 242 252 167 179 164 135 110 108 108 97 93 92 89 21 349 328 324 324 330 325 324 319 312 310 314 313 312 313 312 311 310 308 310 311 305 299 299 298 305 301 306
191 176 177 212 199 167 185 156 138 139 141 134 126 107 78 63 24 344 324 315 314 317 316 317 314 315 315 315 312 311 311 311 310 312 314 314 314 312 311 307 302 299 306 317